GW4612 Weather Reports


time (UTC)temp
F
wind
direction
speed
knots
gust
knots
rain 1hr
in
rain 24hr
in
rain mn
in
humidity
%
barometer
mb
20260507231051 59 263 2.6 5.2 0.00 0.00 0.00 42 1012.4
20260507230547 59 256 0.9 1.7 0.00 0.00 0.00 41 1012.1
20260507230044 59 230 0.0 3.5 0.00 0.00 0.00 42 1012.0
20260507225538 59 265 3.5 8.7 0.00 0.00 0.00 42 1012.2
20260507225035 60 249 2.6 5.2 0.00 0.00 0.00 41 1012.2
20260507224531 60 298 1.7 7.0 0.00 0.00 0.00 41 1012.3
20260507224028 61 294 2.6 3.5 0.00 0.00 0.00 39 1012.2
20260507223524 62 237 5.2 7.0 0.00 0.00 0.00 38 1011.8
20260507223021 62 292 0.9 2.6 0.00 0.00 0.00 37 1011.9
20260507222518 62 280 2.6 3.5 0.00 0.00 0.00 37 1011.8
20260507222014 62 260 0.9 1.7 0.00 0.00 0.00 39 1011.8
20260507221511 62 235 3.5 7.0 0.00 0.00 0.00 36 1011.7
20260507221008 61 211 6.1 7.8 0.00 0.00 0.00 37 1011.6
20260507220505 61 243 3.5 6.1 0.00 0.00 0.00 37 1011.6
20260507220002 62 271 3.5 7.0 0.00 0.00 0.00 38 1011.6
20260507215458 62 194 2.6 5.2 0.00 0.00 0.00 42 1011.4
20260507214956 62 186 1.7 8.7 0.00 0.00 0.00 38 1011.3
20260507214453 61 273 6.1 7.8 0.00 0.00 0.00 38 1011.4
20260507213949 61 254 1.7 6.1 0.00 0.00 0.00 40 1011.1
20260507213445 62 316 3.5 6.1 0.00 0.00 0.00 36 1011.1
20260507212943 63 298 1.7 6.1 0.00 0.00 0.00 39 1011.1
20260507212438 62 325 2.6 6.1 0.00 0.00 0.00 36 1011.1
20260507211936 63 190 4.3 9.6 0.00 0.00 0.00 36 1011.0
20260507211432 63 268 3.5 9.6 0.00 0.00 0.00 36 1011.3
20260507210929 61 270 2.6 3.5 0.00 0.00 0.00 38 1011.2
20260507210426 63 269 3.5 7.8 0.00 0.00 0.00 38 1010.9
20260507205922 64 313 6.1 7.8 0.00 0.00 0.00 35 1011.0
20260507205420 64 265 7.8 9.6 0.00 0.00 0.00 34 1011.1
20260507204916 64 263 6.1 15.6 0.00 0.00 0.00 34 1011.1
20260507204412 63 230 3.5 5.2 0.00 0.00 0.00 36 1011.1
20260507203910 64 278 4.3 8.7 0.00 0.00 0.00 36 1010.9
20260507203408 66 222 3.5 5.2 0.00 0.00 0.00 36 1011.0
20260507202904 65 165 2.6 3.5 0.00 0.00 0.00 36 1010.7
20260507202400 65 316 3.5 8.7 0.00 0.00 0.00 36 1011.1
20260507201856 66 311 2.6 13.0 0.00 0.00 0.00 36 1011.2
20260507201351 67 334 3.5 6.1 0.00 0.00 0.00 35 1011.1
20260507200848 65 216 4.3 6.1 0.00 0.00 0.00 36 1011.1
20260507200344 65 263 6.1 7.0 0.00 0.00 0.00 35 1011.4
20260507195840 64 254 5.2 7.0 0.00 0.00 0.00 37 1011.2
20260507195337 65 261 5.2 9.6 0.00 0.00 0.00 36 1011.4
20260507194835 64 24 3.5 9.6 0.00 0.00 0.00 37 1011.3
20260507194331 64 276 5.2 9.6 0.00 0.00 0.00 35 1011.4
20260507193828 65 290 4.3 6.1 0.00 0.00 0.00 34 1011.3
20260507193325 64 293 6.1 9.6 0.00 0.00 0.00 35 1011.3
20260507192820 65 332 2.6 11.3 0.00 0.00 0.00 35 1011.6
20260507192318 64 234 6.1 8.7 0.00 0.00 0.00 38 1011.4
20260507191814 63 324 3.5 9.6 0.00 0.00 0.00 38 1011.2
20260507191310 63 257 2.6 13.0 0.00 0.00 0.00 39 1011.3
20260507190807 64 319 6.1 13.0 0.00 0.00 0.00 39 1011.1
20260507190306 64 349 3.5 7.0 0.00 0.00 0.00 37 1011.1
20260507185804 65 340 2.6 7.8 0.00 0.00 0.00 35 1011.3
20260507185300 65 318 7.0 11.3 0.00 0.00 0.00 35 1011.6
20260507184758 65 252 0.9 6.1 0.00 0.00 0.00 38 1011.4
20260507184256 65 308 7.8 12.2 0.00 0.00 0.00 37 1011.6
20260507183752 65 327 3.5 12.2 0.00 0.00 0.00 40 1011.3
20260507183249 65 254 4.3 8.7 0.00 0.00 0.00 37 1011.8
20260507182747 64 235 6.1 7.8 0.00 0.00 0.00 38 1011.7
20260507182242 65 253 3.5 8.7 0.00 0.00 0.00 39 1011.3
20260507181739 64 262 7.8 12.2 0.00 0.00 0.00 38 1011.3
20260507181235 65 257 1.7 7.0 0.00 0.00 0.00 41 1011.3
20260507180732 65 255 2.6 8.7 0.00 0.00 0.00 36 1011.6
20260507180229 65 317 5.2 8.7 0.00 0.00 0.00 39 1011.7
20260507175724 64 299 5.2 9.6 0.00 0.00 0.00 37 1011.6
20260507175221 64 207 3.5 8.7 0.00 0.00 0.00 40 1011.7
20260507174719 65 246 3.5 6.1 0.00 0.00 0.00 37 1011.7
20260507174217 64 286 3.5 6.1 0.00 0.00 0.00 42 1011.7
20260507173715 64 300 4.3 8.7 0.00 0.00 0.00 39 1012.0
20260507173211 65 181 0.0 1.7 0.00 0.00 0.00 41 1012.1
20260507172708 65 291 3.5 3.5 0.00 0.00 0.00 41 1012.1
20260507172204 64 304 6.1 9.6 0.00 0.00 0.00 44 1012.0
20260507171658 64 220 1.7 8.7 0.00 0.00 0.00 44 1012.3
20260507171155 64 275 5.2 7.8 0.00 0.00 0.00 43 1012.3
20260507170652 64 298 3.5 8.7 0.00 0.00 0.00 43 1012.5
20260507170150 64 247 1.7 7.8 0.00 0.00 0.00 49 1012.4
20260507165645 63 25 1.7 9.6 0.00 0.00 0.00 45 1012.7
20260507165142 64 289 7.8 9.6 0.00 0.00 0.00 44 1012.8
20260507164637 64 289 2.6 11.3 0.00 0.00 0.00 46 1012.8
20260507164136 63 311 4.3 7.0 0.00 0.00 0.00 46 1012.8
20260507163632 62 91 2.6 8.7 0.00 0.00 0.00 45 1012.8
20260507163130 62 265 3.5 5.2 0.00 0.00 0.00 49 1012.8
20260507162626 62 256 3.5 11.3 0.00 0.00 0.00 47 1013.0
20260507162122 62 244 3.5 9.6 0.00 0.00 0.00 48 1013.2
20260507161618 62 299 4.3 7.0 0.00 0.00 0.00 48 1013.1
20260507161115 62 346 4.3 7.0 0.00 0.00 0.00 50 1013.2
20260507160611 62 277 5.2 7.8 0.00 0.00 0.00 47 1013.3
20260507160108 62 339 4.3 7.0 0.00 0.00 0.00 48 1013.4
20260507155603 61 258 5.2 7.0 0.00 0.00 0.00 51 1013.4
20260507155100 61 261 2.6 9.6 0.00 0.00 0.00 48 1013.5
20260507154557 62 281 2.6 7.0 0.00 0.00 0.00 50 1013.6
20260507154054 62 112 0.9 7.0 0.00 0.00 0.00 52 1013.5
20260507153551 61 310 1.7 5.2 0.00 0.00 0.00 49 1013.5
20260507153047 59 305 0.9 5.2 0.00 0.00 0.00 50 1013.4
20260507152543 59 328 1.7 2.6 0.00 0.00 0.00 55 1013.5
20260507152040 59 251 1.7 2.6 0.00 0.00 0.00 52 1013.8
20260507151536 58 354 2.6 3.5 0.00 0.00 0.00 56 1014.0
20260507151033 57 250 1.7 2.6 0.00 0.00 0.00 53 1014.0
20260507150530 58 298 2.6 6.1 0.00 0.00 0.00 55 1014.1
20260507150027 57 290 0.0 3.5 0.00 0.00 0.00 54 1014.3
20260507145521 57 261 0.9 2.6 0.00 0.00 0.00 56 1014.3
20260507145020 56 260 3.5 5.2 0.00 0.00 0.00 55 1014.5
20260507144516 57 228 1.7 6.1 0.00 0.00 0.00 55 1014.7
20260507144014 58 237 3.5 6.1 0.00 0.00 0.00 55 1014.6
20260507143511 57 311 4.3 6.1 0.00 0.00 0.00 56 1014.5
20260507143008 56 323 2.6 5.2 0.00 0.00 0.00 61 1014.8
20260507142503 55 168 2.6 7.0 0.00 0.00 0.00 64 1014.6
20260507142000 54 108 1.7 3.5 0.00 0.00 0.00 67 1014.7
20260507141456 55 69 2.6 5.2 0.00 0.00 0.00 68 1014.9
20260507140953 54 61 0.9 2.6 0.00 0.00 0.00 69 1015.1
20260507140450 53 33 1.7 2.6 0.00 0.00 0.00 72 1014.9
20260507135947 53 83 1.7 3.5 0.00 0.00 0.00 73 1015.1
20260507135444 52 83 2.6 3.5 0.00 0.00 0.00 72 1015.1
20260507134941 52 51 3.5 3.5 0.00 0.00 0.00 72 1015.1
20260507134438 52 42 2.6 2.6 0.00 0.00 0.00 74 1015.3
20260507133934 52 95 3.5 3.5 0.00 0.00 0.00 75 1015.3
20260507133430 51 46 1.7 2.6 0.00 0.00 0.00 73 1015.4
20260507132929 52 63 2.6 3.5 0.00 0.00 0.00 73 1015.3
20260507132424 52 58 2.6 3.5 0.00 0.00 0.00 75 1015.5
20260507131921 51 28 2.6 3.5 0.00 0.00 0.00 73 1015.5
20260507131418 51 39 3.5 3.5 0.00 0.00 0.00 73 1015.5
20260507130915 51 71 0.9 1.7 0.00 0.00 0.00 75 1015.4
20260507130412 51 64 1.7 2.6 0.00 0.00 0.00 75 1015.4
20260507125911 51 53 1.7 2.6 0.00 0.00 0.00 74 1015.6
20260507125408 50 332 1.7 2.6 0.00 0.00 0.00 74 1015.4
20260507124906 50 335 1.7 2.6 0.00 0.00 0.00 75 1015.4
20260507124401 50 303 0.9 1.7 0.00 0.00 0.00 76 1015.5
20260507123900 50 299 0.9 1.7 0.00 0.00 0.00 75 1015.7
20260507123357 49 343 1.7 3.5 0.00 0.00 0.00 74 1015.6
20260507122853 49 345 1.7 3.5 0.00 0.00 0.00 75 1015.7
20260507122349 50 7 0.9 1.7 0.00 0.00 0.00 74 1015.5
20260507121845 50 68 1.7 2.6 0.00 0.00 0.00 74 1015.5
20260507121340 50 64 1.7 2.6 0.00 0.00 0.00 72 1015.6
20260507120837 50 287 0.0 2.6 0.00 0.00 0.00 70 1015.7
20260507120334 50 353 1.7 3.5 0.00 0.00 0.00 68 1015.6
20260507115830 50 264 1.7 3.5 0.00 0.00 0.00 70 1015.4
20260507115326 50 258 1.7 7.0 0.00 0.00 0.00 71 1015.4
20260507114822 50 328 2.6 5.2 0.00 0.00 0.00 73 1015.3
20260507114319 50 218 3.5 6.1 0.00 0.00 0.00 76 1015.3
20260507113817 50 298 0.9 0.9 0.00 0.00 0.00 80 1015.1
20260507113313 50 282 0.0 0.9 0.00 0.00 0.00 80 1015.2
20260507112811 49 297 1.7 1.7 0.00 0.00 0.00 82 1015.1
20260507112308 49 325 0.9 1.7 0.00 0.00 0.00 87 1015.0
20260507111806 49 82 0.0 0.0 0.00 0.00 0.00 86 1014.9
20260507111302 49 96 0.0 0.0 0.00 0.00 0.00 87 1015.1
20260507110758 49 96 0.0 0.0 0.00 0.00 0.00 86 1014.9
20260507110255 49 55 0.9 0.9 0.00 0.00 0.00 86 1014.8
20260507105752 49 311 0.9 1.7 0.00 0.00 0.00 86 1015.0
20260507105247 49 302 0.9 1.7 0.00 0.00 0.00 86 1014.9
20260507104745 49 30 0.9 2.6 0.00 0.00 0.00 86 1014.8
20260507104236 49 33 1.7 2.6 0.00 0.00 0.00 87 1014.9
20260507103732 50 75 0.0 0.9 0.00 0.00 0.00 87 1014.7
20260507103229 50 35 0.0 0.0 0.00 0.00 0.00 86 1014.6
20260507102725 50 34 0.0 0.0 0.00 0.00 0.00 84 1014.6
20260507102221 50 34 0.0 0.0 0.00 0.00 0.00 84 1014.6
20260507101717 50 34 1.7 1.7 0.00 0.00 0.00 83 1014.4
20260507101213 51 17 0.9 1.7 0.00 0.00 0.00 82 1014.4
20260507100711 51 11 0.9 1.7 0.00 0.00 0.00 82 1014.4
20260507100209 51 299 0.0 0.0 0.00 0.00 0.00 83 1014.2
20260507095707 51 316 0.0 0.9 0.00 0.00 0.00 81 1014.2
20260507095203 51 316 0.9 0.9 0.00 0.00 0.00 81 1014.1
20260507094700 51 348 1.7 2.6 0.00 0.00 0.00 80 1014.1
20260507094156 51 327 0.0 1.7 0.00 0.00 0.00 80 1014.0
20260507093654 51 304 0.9 1.7 0.00 0.00 0.00 81 1014.2
20260507093152 51 288 1.7 1.7 0.00 0.00 0.00 81 1014.3
20260507092649 51 280 0.0 0.9 0.00 0.00 0.00 81 1014.2
20260507092146 50 281 0.9 1.7 0.00 0.00 0.00 81 1014.2
20260507091642 50 280 0.0 0.9 0.00 0.00 0.00 83 1014.4
20260507091138 50 279 0.0 0.0 0.00 0.00 0.00 83 1014.4
20260507090634 50 279 0.0 0.0 0.00 0.00 0.00 84 1014.2
20260507090132 50 279 0.0 0.9 0.00 0.00 0.00 83 1014.2
20260507085628 50 279 0.9 0.9 0.00 0.00 0.00 83 1014.1
20260507085125 50 300 0.0 0.0 0.00 0.00 0.00 82 1014.0
20260507084622 50 295 0.0 0.0 0.00 0.00 0.00 82 1014.2
20260507084118 50 295 1.7 1.7 0.00 0.00 0.00 83 1014.3
20260507083615 50 252 0.0 0.0 0.00 0.00 0.00 82 1014.4
20260507083112 50 252 0.0 0.0 0.00 0.00 0.00 83 1014.3
20260507082608 51 252 0.0 0.0 0.00 0.00 0.00 81 1014.5
20260507082104 51 252 0.0 0.0 0.00 0.00 0.00 80 1014.4
20260507081601 51 252 0.0 0.0 0.00 0.00 0.00 79 1014.4
20260507081058 51 252 0.0 0.0 0.00 0.00 0.00 78 1014.2
20260507080554 51 245 0.0 0.0 0.00 0.00 0.00 78 1014.1
20260507080050 51 246 0.0 0.9 0.00 0.00 0.00 78 1014.0
20260507075545 51 250 0.9 1.7 0.00 0.00 0.00 77 1014.3
20260507075042 51 261 0.9 1.7 0.00 0.00 0.00 78 1014.2
20260507074539 51 241 0.0 0.0 0.00 0.00 0.00 78 1014.1
20260507074037 51 281 0.9 1.7 0.00 0.00 0.00 77 1014.2
20260507073533 51 330 0.9 2.6 0.00 0.00 0.00 78 1014.2
20260507073030 51 32 1.7 2.6 0.00 0.00 0.00 77 1014.1
20260507072527 50 25 0.0 0.0 0.00 0.00 0.00 78 1014.1
20260507072025 50 41 0.0 0.0 0.00 0.00 0.00 78 1014.0
20260507071522 51 41 0.0 0.0 0.00 0.00 0.00 78 1014.1
20260507071018 51 94 0.0 0.0 0.00 0.00 0.00 79 1014.0
20260507070516 51 94 0.0 0.9 0.00 0.00 0.00 78 1014.3
20260507070014 51 65 1.7 2.6 0.00 0.00 0.00 78 1014.2
20260507065509 51 40 1.7 1.7 0.00 0.00 0.00 77 1014.1
20260507065006 51 350 0.9 2.6 0.00 0.00 0.00 76 1014.0
20260507064504 51 81 0.9 1.7 0.00 0.00 0.00 79 1014.0
20260507064002 51 116 1.7 5.2 0.00 0.00 0.00 76 1013.6
20260507063458 51 114 4.3 5.2 0.00 0.00 0.00 76 1013.8
20260507062956 51 339 3.5 3.5 0.00 0.00 0.00 76 1014.2
20260507062453 52 54 0.0 0.9 0.00 0.00 0.00 75 1014.4
20260507061950 52 323 1.7 1.7 0.00 0.00 0.00 75 1014.3
20260507061448 52 320 0.9 5.2 0.00 0.00 0.00 75 1014.3
20260507060946 52 310 1.7 2.6 0.00 0.00 0.00 75 1014.4
20260507060443 52 314 3.5 3.5 0.00 0.00 0.00 75 1014.5
20260507055939 52 351 8.7 9.6 0.00 0.00 0.00 75 1014.4
20260507055434 52 277 3.5 6.1 0.00 0.00 0.00 75 1014.5
20260507054932 52 132 2.6 11.3 0.00 0.00 0.00 76 1014.2
20260507054427 53 25 6.1 11.3 0.00 0.00 0.00 76 1014.5
20260507053924 53 301 5.2 7.8 0.00 0.00 0.00 77 1014.4
20260507053422 53 351 6.1 8.7 0.00 0.00 0.00 77 1014.5
20260507052921 53 4 1.7 2.6 0.00 0.00 0.00 77 1014.5
20260507052418 53 332 2.6 5.2 0.00 0.00 0.00 77 1014.4
20260507051915 53 221 4.3 6.1 0.00 0.00 0.00 77 1014.3
20260507051413 53 239 1.7 6.1 0.00 0.00 0.00 77 1014.2
20260507050910 53 293 4.3 11.3 0.00 0.00 0.00 77 1014.2
20260507050406 54 320 1.7 9.6 0.00 0.00 0.00 77 1014.2
20260507045903 54 273 1.7 6.1 0.00 0.00 0.00 80 1014.3
20260507045359 54 201 3.5 7.8 0.00 0.00 0.00 78 1014.3
20260507044856 54 299 4.3 9.6 0.00 0.00 0.00 78 1014.0
20260507044353 54 39 1.7 8.7 0.00 0.00 0.00 78 1014.0
20260507043849 54 225 0.9 3.5 0.00 0.00 0.00 79 1013.6
20260507043345 54 276 3.5 3.5 0.00 0.00 0.00 80 1013.6
20260507042842 54 9 1.7 7.0 0.00 0.00 0.00 81 1013.6
20260507042338 55 15 2.6 5.2 0.00 0.00 0.00 82 1013.8
20260507041835 55 291 0.9 5.2 0.00 0.00 0.00 82 1013.8
20260507041331 55 279 2.6 5.2 0.00 0.00 0.00 81 1013.8
20260507040828 56 262 0.9 1.7 0.00 0.00 0.00 81 1013.6
20260507040324 56 308 3.5 7.0 0.00 0.00 0.00 79 1013.8
20260507035820 56 300 1.7 5.2 0.00 0.05 0.05 79 1014.2
20260507035315 56 305 5.2 7.0 0.00 0.05 0.05 79 1014.1
20260507034814 56 310 5.2 7.0 0.00 0.05 0.05 79 1013.7
20260507034310 56 301 2.6 3.5 0.00 0.05 0.05 79 1012.8
20260507033808 56 277 1.7 7.0 0.00 0.05 0.05 78 1013.5
20260507033306 56 264 2.6 5.2 0.00 0.05 0.05 79 1014.0
20260507032802 56 219 3.5 7.0 0.00 0.05 0.05 78 1014.4
20260507032258 56 260 0.0 2.6 0.00 0.05 0.05 79 1014.4
20260507031755 56 263 2.6 3.5 0.00 0.05 0.05 79 1014.1
20260507031252 56 239 0.0 1.7 0.00 0.05 0.05 80 1013.2
20260507030749 56 303 1.7 3.5 0.00 0.05 0.05 80 1013.1
20260507030246 56 258 2.6 3.5 0.00 0.05 0.05 80 1013.4
20260507025743 56 300 2.6 6.1 0.00 0.05 0.05 81 1014.1
20260507025240 56 263 1.7 3.5 0.00 0.05 0.05 81 1014.0
20260507024739 56 290 1.7 6.1 0.00 0.05 0.05 81 1013.6
20260507024235 56 293 6.1 8.7 0.00 0.05 0.05 82 1014.1
20260507023731 56 275 4.3 11.3 0.00 0.05 0.05 83 1014.4
20260507023228 56 311 5.2 7.0 0.00 0.05 0.05 83 1014.2
20260507022726 56 258 3.5 5.2 0.00 0.05 0.05 83 1013.5
20260507022221 56 259 4.3 6.1 0.00 0.05 0.05 84 1013.4
20260507021718 56 261 2.6 5.2 0.00 0.05 0.05 84 1013.8
20260507021213 56 268 3.5 5.2 0.00 0.05 0.05 85 1013.5
20260507020712 56 292 3.5 3.5 0.00 0.05 0.05 84 1013.0
20260507020207 57 297 1.7 5.2 0.00 0.05 0.05 84 1013.5
20260507015706 57 286 1.7 3.5 0.00 0.05 0.05 82 1013.5
20260507015203 57 245 0.9 6.1 0.00 0.05 0.05 83 1013.4
20260507014659 57 301 2.6 3.5 0.00 0.05 0.05 82 1013.3
20260507014155 57 235 0.0 0.9 0.00 0.05 0.05 82 1013.1
20260507013652 57 320 3.5 3.5 0.00 0.05 0.05 82 1013.1
20260507013149 57 282 0.9 2.6 0.00 0.05 0.05 81 1012.9
20260507012647 58 242 1.7 3.5 0.00 0.05 0.05 81 1013.1
20260507012142 58 257 3.5 6.1 0.00 0.05 0.05 80 1013.1
20260507011641 58 280 1.7 3.5 0.00 0.05 0.05 80 1012.9
20260507011136 58 207 1.7 2.6 0.00 0.05 0.05 80 1012.7
20260507010631 58 246 1.7 3.5 0.00 0.05 0.05 79 1012.9
20260507010122 59 244 2.6 3.5 0.00 0.05 0.05 79 1013.1
20260507005620 59 305 3.5 7.8 0.00 0.05 0.05 78 1012.8
20260507005116 59 266 3.5 5.2 0.00 0.05 0.05 77 1012.8
20260507004613 59 286 1.7 2.6 0.00 0.05 0.05 77 1012.6
20260507004110 60 247 0.9 2.6 0.00 0.05 0.05 76 1012.6
20260507003606 60 272 1.7 2.6 0.00 0.05 0.05 76 1012.8
20260507003101 60 327 0.9 2.6 0.00 0.05 0.05 74 1012.9
20260507002558 60 294 0.0 2.6 0.00 0.05 0.05 74 1013.0
20260507002053 60 259 1.7 2.6 0.00 0.05 0.05 75 1013.3
20260507001551 60 245 1.7 6.1 0.00 0.05 0.05 75 1013.3
20260507001048 60 253 3.5 5.2 0.00 0.05 0.05 74 1013.3
20260507000544 61 264 1.7 3.5 0.00 0.05 0.05 74 1013.0
20260507000039 61 322 1.7 3.5 0.00 0.05 0.05 74 1012.9
20260506235537 61 302 3.5 5.2 0.00 0.05 0.05 74 1013.0
20260506235032 61 303 1.7 1.7 0.00 0.05 0.05 78 1012.9
20260506234531 61 272 0.9 0.9 0.00 0.05 0.05 77 1013.0
20260506234027 61 229 0.0 0.0 0.00 0.05 0.05 74 1012.9
20260506233524 61 231 1.7 1.7 0.00 0.05 0.05 74 1012.9
20260506233021 61 305 0.9 2.6 0.00 0.05 0.05 73 1012.8
20260506232517 62 234 4.3 5.2 0.00 0.05 0.05 72 1012.6
20260506232012 62 295 2.6 3.5 0.00 0.05 0.05 73 1012.6